Zurück zum Katalog

BD-19

AktivNavigationMEO
NORAD 40749·PAYLOAD·🇨🇳 China

Gestartet Jul 25, 2015 von Xichang Satellite Launch Center

Loading…

Nächste Überflüge (nächste 24 Stunden)

TLE

AktuellSource: Space-Track

Epoche: Sep 14, 2026, 02:47 UTC

1 40749U 15037B   26257.11662373 -.00000061  00000-0  00000-0 0  9999
2 40749  54.7856 298.9637 0001786  44.7466 315.3286  1.86255001 75781

Verfolge BD-19 in Echtzeit mit AllMySat

Download on the App Store